STARLINK-4666, 53789

Orbit data source: Space-Track

STARLINK-4666, 53789 is a payload satellite owned by SpaceX/Seattle (US) in LEO that was launched on Sun, 11 Sep 2022 UTC via an FALCON 9 launch vehicle from the Air Force Eastern Test Range (AFETR). Payload-class satellites include a variety of spacecraft equipped with specific instruments for various scientific and technological missions. These include communications satellites like Starlink; space stations such as the ISS; scientific satellites like the Hubble; Earth observation satellites from companies like Planet Labs, Umbra, and HawkEye 360; GPS; miniature CubeSats for education and research; and military/defense satellites.

Loading next visibility...
Identifier
53789, 2022-111S
Orbit
LEO
Country
Flag of USUS
Related business
Manufacturer
SpaceX/Seattle
Mission
Operational Commercial Communications
Bus & Motor
STARLINK, Unknown motor
Mass
305 kg wet, ~290 kg dry
Launch date (UTC)
2022-09-11 (4 years ago)
Launch vehicle
FALCON 9
Launch site
Air Force Eastern Test Range (AFETR)
Object type
Payload
Rocket body
Debris
Shape & HBR
Box + 1 Pan, 10.1 m
Radar Cross Section
13.562 m², Large (>1 m²)

Expand to show TLE details & history
Last TLE update: 8 hours ago

TLE from 8 hours ago
0 STARLINK-4666
1 53789U 22111S   26127.93189847  .00003364  00000-0  22932-3 0  9993
2 53789  53.2166   7.8944 0001156  82.2947 277.8177 15.08845751202630
Epoch: 2026-05-07T22:21Z
TLE epoch observation values (Epoch: 2026-05-07T22:21:56.027Z)
Latitude
0.00001°
Longitude
166.64001°
Altitude
540.515 km
Speed
7.593 km/s
True Right ascension
00h 31m 34s
True Declination
0° 00' 00"
Sunlit
Object was in daylight at epoch
Visualization orbit readout
Latitude
Unknown
Longitude
Unknown
Altitude
Unknown
Speed
Unknown
Apparent Right ascension
Unknown
Apparent Declination
Unknown
Sunlit
N/A
Visualization observer readout
Local Sidereal Time
14:55:44
Azimuth
Unknown
Elevation
Unknown
Doppler factor
Unknown
Orbital elements
Apogee altitude
540.771 km
Perigee altitude
539.171 km
Semi-major axis
6,918.108 km
Eccentricity
0.00012
Inclination
53.2166°
RAAN
7.8944°
Arg. of periapsis
82.2947°
True anomaly
277.80458°
Mean anomaly
277.8177°
Eccentric anomaly
277.81114°
Mean motion
3.77192 °/min
Orbital period
95.44 mins
BSTAR
0.00022932
Loading maneuver chart data...
Computing Atmospheric mass density...
Loading historical data...
Loading historical data...
Loading historical data...
Loading historical data...
Loading historical data...
Loading historical data...
Loading historical data...

Documentation

Showing up to 5 results
|